Weather in Konstantinovka

Ukraine / Kherson District     46°49′41″N   33°51′55″E
temp.,
°C
wind,
m/s
gust,
m/s
humid.,
%
clouds,
%
prec.,
mm/h
press.,
hPa
HPBL,
m
7 may, fri
fri700:00+13wnw3465100 0.0 1013146
03:00+11nnw3592100 0.0 1014144
06:00+10n34915 0.0 101577
09:00+15ne22615 0.0 1016605
12:00+19s12425 0.0 10161535
15:00+21ssw343888 0.0 10152038
18:00+20s4646100 0.0 10131180
21:00+14sse5127556 0.0 1014255
8 may, sat
sat800:00+13s378292 0.0 1013180
03:00+14s41264100 0.0 1011384
06:00+13s31169100 0.0 1011341
09:00+17sw51168100 0.0 1011677
12:00+17w5769100 0.1 1011947
15:00+13nw71183100 0.6 1013711
18:00+11nnw71186100 1.1 1014842
21:00+10n3879100 1.7 1016375
9 may, sun
sun900:00+10nnw71167100 0.2 1017528
03:00+7nnw7107993 0.2 1019495
06:00+6nw610830 0.0 1021431
09:00+10nnw810652 0.0 1023992
12:00+14nnw79435 0.0 10242068
15:00+16nnw7835100 0.0 10242925
18:00+15n674193 0.0 10252268
21:00+10nne225755 0.0 102720
10 may, mon
mon1000:00+10n356486 0.0 102768
03:00+9n35695 0.0 1028122
06:00+8n35755 0.0 102885
09:00+13nne57470 0.0 10281548
12:00+15n67395 0.0 10281880
15:00+16n68364 0.0 10252036
18:00+16nne69435 0.0 10252069
21:00+12n5115321 0.0 1024249
11 may, tue
tue1100:00+13n61055100 0.0 1023548
03:00+12n6106187 0.0 1022529
06:00+12n61066100 0.0 1022520
09:00+14nne696511 0.0 1022632
12:00+19n67575 0.0 1021960
15:00+21nne78525 0.0 10191282
18:00+21nne68575 0.1 10191447
21:00+14e598739 1.2 1020257